Location: *
(43.0833°N, 13.0500°E)
Time: 05:20:51
(UTC+00:00)

Cosmos 1328 Rocket - Pass Details

Date: 15 November 2019
Orbit: 600 x 628 km, 82.5° (Epoch: 14 December)

Event Time Altitude Azimuth Distance (km) Brightness Sun altitude
Rises 18:02:13 0° 201° (SSW) 2,899 7.3 -25.1°
Reaches altitude 10° 18:04:31 10° 207° (SSW) 1,995 6.5 -25.6°
Maximum altitude 18:08:47 47° 282° (WNW) 826 4.5 -26.3°
Enters shadow 18:11:31 21° 348° (NNW) 1,426 5.5 -26.8°
